Mackinac Island, MI

4:57 PM EDT on August 22, 2017 (GMT -0400)
Mackinac Island

Weather History for KMCD - April, 2014

Change the Weather History Date:

Tuesday, April 22, 2014

  Actual Average Record
Temperature  
Mean Temperature 36 °F -  
Max Temperature 41 °F 48 °F 73 °F (2007)
Min Temperature 31 °F 32 °F 23 °F (1986)
Degree Days  
Heating Degree Days 28    
Moisture  
Dew Point 32 °F    
Average Humidity 84    
Maximum Humidity 100    
Minimum Humidity 70    
Precipitation  
Precipitation 0.03 in - - ()
Sea Level Pressure  
Sea Level Pressure 29.81 in    
Wind  
Wind Speed 12 mph (NW)    
Max Wind Speed 18 mph    
Max Gust Speed 30 mph    
Visibility 10 miles    
Events Fog    
Averages and records for this station are not official NWS values.
T = Trace of Precipitation, MM = Missing Value Source: NWS Daily Summary

Daily Weather History Graph

Daily Weather History Graph

Search for Another Location

Airport or City:

Trip Planner

Search our weather history database for the weather conditions in past years. The results will help you decide how hot, cold, wet, or windy it might be!

Date:

Astronomy

Apr. 22, 2014 Rise Set
Actual Time 6:40 AM EDT 8:34 PM EDT
Civil Twilight 6:08 AM EDT 9:06 PM EDT
Nautical Twilight 5:29 AM EDT 9:45 PM EDT
Astronomical Twilight 4:46 AM EDT 10:29 PM EDT
Moon 2:50 AM EDT 1:13 PM EDT
Length of Visible Light 14h 58m
Length of Day
13h 54m
Last Quarter, 46% of the Moon is Illuminated
Apr 22
Last Quarter
Apr 29
New
May 6
First Quarter
May 14
Full
May 21
Last Quarter

Hourly Weather History & Observations

Time (EDT) Temp. Windchill Dew Point Humidity Pressure Visibility Wind Dir Wind Speed Gust Speed Precip Events Conditions
12:17 AM 38.1 °F 31.7 °F 38.1 °F 100% 29.74 in 0.2 mi West 9.2 mph - N/A Fog Fog
12:38 AM 36.9 °F 29.1 °F 36.9 °F 100% 29.75 in 0.2 mi West 11.5 mph - N/A Fog Fog
12:57 AM 36.1 °F 29.3 °F 36.1 °F 100% 29.74 in 1.2 mi WNW 9.2 mph 18.4 mph N/A   Overcast
1:17 AM 36.1 °F 29.3 °F 36.1 °F 100% 29.75 in 7.0 mi WNW 9.2 mph - N/A   Overcast
1:38 AM 36.5 °F 29.7 °F 35.8 °F 97% 29.74 in 10.0 mi NW 9.2 mph - N/A   Mostly Cloudy
1:57 AM 36.7 °F 29.4 °F 35.1 °F 94% 29.74 in 10.0 mi WNW 10.4 mph - N/A   Overcast
2:17 AM 36.9 °F 29.6 °F 34.7 °F 92% 29.74 in 10.0 mi WNW 10.4 mph - N/A   Overcast
2:38 AM 36.5 °F 29.7 °F 33.8 °F 90% 29.74 in 10.0 mi WNW 9.2 mph - N/A   Mostly Cloudy
2:57 AM 36.7 °F 32.0 °F 32.9 °F 86% 29.75 in 10.0 mi WNW 5.8 mph - N/A   Scattered Clouds
3:18 AM 35.8 °F 29.4 °F 32.4 °F 87% 29.74 in 10.0 mi WNW 8.1 mph - N/A   Scattered Clouds
3:38 AM 35.6 °F 28.6 °F 32.0 °F 87% 29.74 in 10.0 mi WNW 9.2 mph - N/A   Clear
3:57 AM 35.6 °F 28.6 °F 32.0 °F 87% 29.73 in 10.0 mi WNW 9.2 mph - N/A   Clear
4:18 AM 35.2 °F 27.1 °F 32.0 °F 88% 29.73 in 10.0 mi WNW 11.5 mph - N/A   Scattered Clouds
4:38 AM 35.1 °F 26.9 °F 32.0 °F 89% 29.74 in 10.0 mi WNW 11.5 mph 17.3 mph N/A   Mostly Cloudy
4:57 AM 35.2 °F 26.6 °F 32.0 °F 88% 29.74 in 10.0 mi WNW 12.7 mph 21.9 mph N/A   Overcast
5:18 AM 35.1 °F 26.9 °F 32.0 °F 89% 29.74 in 10.0 mi WNW 11.5 mph 23.0 mph N/A   Overcast
5:38 AM 34.9 °F 26.6 °F 32.0 °F 89% 29.74 in 10.0 mi WNW 11.5 mph 17.3 mph N/A   Overcast
6:18 AM 34.9 °F 25.7 °F 32.0 °F 89% 29.73 in 10.0 mi West 13.8 mph 17.3 mph N/A   Overcast
6:38 AM 34.9 °F 26.2 °F 32.2 °F 90% 29.73 in 10.0 mi West 12.7 mph - N/A   Overcast
6:57 AM 34.7 °F 25.5 °F 32.4 °F 91% 29.74 in 10.0 mi West 13.8 mph - N/A   Overcast
7:18 AM 34.0 °F 26.0 °F 32.2 °F 93% 29.75 in 10.0 mi West 10.4 mph - N/A   Overcast
7:38 AM 33.8 °F 25.3 °F 32.4 °F 94% 29.75 in 10.0 mi West 11.5 mph - N/A   Overcast
7:58 AM 33.4 °F 24.3 °F 32.5 °F 96% 29.75 in 10.0 mi West 12.7 mph - N/A   Overcast
8:18 AM 33.4 °F 24.3 °F 32.9 °F 98% 29.75 in 10.0 mi West 12.7 mph - N/A   Overcast
8:37 AM 33.8 °F 24.3 °F 33.1 °F 97% 29.75 in 10.0 mi West 13.8 mph - N/A   Overcast
8:58 AM 33.8 °F 25.3 °F 33.1 °F 97% 29.75 in 10.0 mi West 11.5 mph - N/A   Overcast
9:17 AM 33.8 °F 25.8 °F 33.3 °F 98% 29.75 in 10.0 mi West 10.4 mph - N/A   Overcast
9:38 AM - - - N/A% - - North - - N/A   Unknown
9:56 AM 34.9 °F 27.1 °F 34.0 °F 97% 29.75 in 10.0 mi WNW 10.4 mph 18.4 mph 0.03 in   Overcast
10:16 AM 35.6 °F 28.0 °F 34.2 °F 94% 29.75 in 10.0 mi WNW 10.4 mph - N/A   Overcast
10:36 AM 36.1 °F 29.9 °F 34.5 °F 94% 29.75 in 10.0 mi WNW 8.1 mph - N/A   Overcast
10:56 AM 36.5 °F 28.7 °F 34.3 °F 92% 29.75 in 10.0 mi WNW 11.5 mph 16.1 mph N/A   Overcast
11:16 AM 37.0 °F 29.3 °F 34.5 °F 91% 29.75 in 10.0 mi NW 11.5 mph 17.3 mph N/A   Overcast
11:36 AM 38.3 °F 30.1 °F 34.2 °F 85% 29.76 in 10.0 mi NW 13.8 mph 21.9 mph N/A   Overcast
11:56 AM 38.3 °F 30.1 °F 34.0 °F 84% 29.76 in 10.0 mi SSW 13.8 mph 25.3 mph N/A   Overcast
12:16 PM 39.4 °F 31.1 °F 33.8 °F 80% 29.76 in 10.0 mi NW 15.0 mph 20.7 mph N/A   Overcast
12:36 PM 41.0 °F 33.1 °F 33.1 °F 73% 29.77 in 10.0 mi NNW 15.0 mph 20.7 mph N/A   Overcast
12:56 PM 39.4 °F 31.8 °F 32.2 °F 75% 29.78 in 10.0 mi NW 12.7 mph 20.7 mph N/A   Overcast
1:15 PM 38.7 °F 30.9 °F 32.0 °F 77% 29.78 in 10.0 mi NW 12.7 mph 19.6 mph N/A   Overcast
1:36 PM 38.5 °F 29.9 °F 31.8 °F 77% 29.79 in 10.0 mi NW 15.0 mph 24.2 mph N/A   Overcast
1:56 PM 39.2 °F 30.5 °F 31.8 °F 75% 29.79 in 10.0 mi NW 16.1 mph 24.2 mph N/A   Overcast
2:15 PM 39.4 °F 30.7 °F 31.6 °F 74% 29.80 in 10.0 mi NW 16.1 mph 27.6 mph N/A   Overcast
2:36 PM 39.6 °F 31.0 °F 31.3 °F 72% 29.80 in 10.0 mi NW 16.1 mph 26.5 mph N/A   Overcast
2:56 PM 40.1 °F 31.3 °F 31.1 °F 70% 29.81 in 10.0 mi NW 17.3 mph 26.5 mph N/A   Overcast
3:16 PM 39.6 °F 31.7 °F 31.3 °F 72% 29.82 in 10.0 mi NW 13.8 mph 25.3 mph N/A   Overcast
3:36 PM 39.2 °F 30.5 °F 31.5 °F 74% 29.82 in 10.0 mi NW 16.1 mph 28.8 mph N/A   Overcast
3:55 PM 39.0 °F 29.9 °F 31.3 °F 74% 29.83 in 10.0 mi NNW 17.3 mph 26.5 mph N/A   Overcast
4:16 PM 38.3 °F 28.7 °F 30.9 °F 75% 29.84 in 10.0 mi NNW 18.4 mph 29.9 mph N/A   Overcast
4:36 PM 38.1 °F 28.4 °F 30.9 °F 75% 29.84 in 10.0 mi NW 18.4 mph 27.6 mph N/A   Overcast
4:54 PM 38.1 °F 29.1 °F 31.3 °F 76% 29.85 in 10.0 mi NNW 16.1 mph 26.5 mph N/A   Overcast
5:15 PM 37.4 °F 27.8 °F 30.9 °F 77% 29.86 in 10.0 mi NNW 17.3 mph 25.3 mph N/A   Overcast
5:36 PM 36.9 °F 27.8 °F 30.7 °F 79% 29.87 in 10.0 mi NNW 15.0 mph 25.3 mph N/A   Overcast
5:56 PM 37.0 °F 27.7 °F 30.4 °F 77% 29.87 in 10.0 mi NNW 16.1 mph 26.5 mph N/A   Overcast
6:16 PM 36.9 °F 27.8 °F 30.0 °F 76% 29.88 in 10.0 mi NNW 15.0 mph 25.3 mph N/A   Overcast
6:36 PM 37.4 °F 27.5 °F 29.8 °F 74% 29.89 in 10.0 mi NNW 18.4 mph 26.5 mph N/A   Overcast
6:56 PM 37.4 °F 28.9 °F 29.8 °F 74% 29.90 in 10.0 mi NNW 13.8 mph 23.0 mph N/A   Overcast
7:16 PM 36.9 °F 27.1 °F 29.8 °F 76% 29.91 in 10.0 mi NNW 17.3 mph 27.6 mph N/A   Overcast
7:36 PM 36.7 °F 27.6 °F 29.8 °F 76% 29.92 in 10.0 mi NNW 15.0 mph 25.3 mph N/A   Overcast
7:56 PM 36.0 °F 27.1 °F 29.3 °F 77% 29.93 in 10.0 mi NNW 13.8 mph 21.9 mph N/A   Overcast
8:16 PM 35.6 °F 27.1 °F 29.1 °F 77% 29.93 in 10.0 mi NNW 12.7 mph 24.2 mph N/A   Overcast
8:36 PM 35.6 °F 26.6 °F 28.4 °F 75% 29.93 in 10.0 mi NNW 13.8 mph 20.7 mph N/A   Overcast
8:56 PM 34.9 °F 25.7 °F 28.4 °F 77% 29.93 in 10.0 mi North 13.8 mph 25.3 mph N/A   Overcast
9:16 PM 34.3 °F 25.0 °F 28.2 °F 78% 29.94 in 10.0 mi North 13.8 mph 21.9 mph N/A   Mostly Cloudy
9:36 PM 33.8 °F 26.4 °F 28.2 °F 80% 29.95 in 10.0 mi North 9.2 mph 19.6 mph N/A   Scattered Clouds
9:56 PM 33.4 °F 25.9 °F 28.2 °F 81% 29.96 in 10.0 mi NNW 9.2 mph 18.4 mph N/A   Mostly Cloudy
10:16 PM 33.4 °F 24.8 °F 28.2 °F 81% 29.97 in 10.0 mi NNW 11.5 mph 19.6 mph N/A   Scattered Clouds
10:37 PM 33.1 °F 24.4 °F 28.2 °F 82% 29.97 in 10.0 mi NNW 11.5 mph 18.4 mph N/A   Scattered Clouds
10:56 PM 33.1 °F 24.9 °F 28.2 °F 82% 29.97 in 10.0 mi NNW 10.4 mph 17.3 mph N/A   Scattered Clouds
11:16 PM 32.9 °F 25.9 °F 28.2 °F 83% 29.97 in 10.0 mi NNW 8.1 mph - N/A   Clear
11:36 PM 32.5 °F 27.1 °F 28.2 °F 84% 29.98 in 10.0 mi NNW 5.8 mph - N/A   Clear
11:56 PM 31.8 °F 26.2 °F 28.2 °F 87% 29.99 in 10.0 mi NW 5.8 mph - N/A   Clear